Time,TemperatureF,DewpointF,PressureIn,WindDirection,WindDirectionDegrees,WindSpeedMPH,WindSpeedGustMPH,Humidity,HourlyPrecipIn,Conditions,Clouds,dailyrainin,SoftwareType,DateUTC
2013-01-16 00:00:00,34.7,18.9,29.23,ESE,114,12.8,17.0,52,0.00,,,0.08,VWS V13.01,2013-01-16 05:00:00,
2013-01-16 00:06:00,34.7,18.9,29.23,SSE,150,8.7,17.4,52,0.00,,,0.00,VWS V13.01,2013-01-16 05:06:00,
2013-01-16 00:11:00,34.7,18.9,29.23,ENE,71,6.3,11.9,52,0.00,,,0.00,VWS V13.01,2013-01-16 05:11:00,
2013-01-16 00:21:00,34.9,18.6,29.26,WSW,240,0.0,4.0,51,0.00,,,0.00,VWS V13.01,2013-01-16 05:21:00,
2013-01-16 00:26:00,34.9,19.1,29.26,WSW,240,0.0,0.0,52,0.00,,,0.00,VWS V13.01,2013-01-16 05:26:00,
2013-01-16 00:31:00,34.9,19.1,29.26,NNW,333,2.7,3.6,52,0.00,,,0.00,VWS V13.01,2013-01-16 05:31:00,
2013-01-16 00:36:00,34.9,19.1,29.26,NNW,333,0.0,2.7,52,0.00,,,0.00,VWS V13.01,2013-01-16 05:36:00,
2013-01-16 00:41:00,34.9,19.1,29.26,North,357,0.0,3.1,52,0.00,,,0.00,VWS V13.01,2013-01-16 05:41:00,
2013-01-16 00:51:00,34.9,19.1,29.29,NNW,345,4.0,4.0,52,0.00,,,0.00,VWS V13.01,2013-01-16 05:51:00,
2013-01-16 01:00:00,34.9,19.5,29.29,North,357,4.0,5.4,53,0.00,,,0.00,VWS V13.01,2013-01-16 06:00:00,
2013-01-16 01:05:00,34.7,19.3,29.26,NNW,343,3.6,4.0,53,0.00,,,0.00,VWS V13.01,2013-01-16 06:05:00,
2013-01-16 01:10:00,34.7,19.3,29.26,NW,324,2.7,5.8,53,0.00,,,0.00,VWS V13.01,2013-01-16 06:10:00,
2013-01-16 01:15:00,34.7,19.8,29.26,WNW,300,4.0,5.4,54,0.00,,,0.00,VWS V13.01,2013-01-16 06:15:00,
2013-01-16 01:20:00,34.5,19.6,29.29,NW,323,0.0,3.6,54,0.04,,,0.04,VWS V13.01,2013-01-16 06:20:00,
2013-01-16 01:25:00,34.5,19.6,29.29,NW,323,2.2,3.1,54,0.04,,,0.04,VWS V13.01,2013-01-16 06:25:00,
2013-01-16 01:30:00,34.5,19.6,29.29,NNW,329,2.2,4.0,54,0.04,,,0.04,VWS V13.01,2013-01-16 06:30:00,
2013-01-16 01:35:00,34.5,20.0,29.29,NNW,327,4.9,6.3,55,0.04,,,0.04,VWS V13.01,2013-01-16 06:35:00,
2013-01-16 01:40:00,34.5,20.5,29.29,NW,307,4.0,4.9,56,0.04,,,0.04,VWS V13.01,2013-01-16 06:40:00,
2013-01-16 01:45:00,34.5,20.5,29.29,NW,315,0.0,3.6,56,0.04,,,0.04,VWS V13.01,2013-01-16 06:45:00,
2013-01-16 01:50:00,34.5,20.5,29.29,NW,315,2.7,3.1,56,0.04,,,0.04,VWS V13.01,2013-01-16 06:50:00,
2013-01-16 01:55:00,34.3,20.3,29.29,NW,315,0.0,3.1,56,0.04,,,0.04,VWS V13.01,2013-01-16 06:55:00,
2013-01-16 02:00:00,34.3,20.3,29.29,NW,305,4.0,4.5,56,0.04,,,0.04,VWS V13.01,2013-01-16 07:00:00,
2013-01-16 02:05:00,34.3,20.7,29.29,NW,310,5.4,5.8,57,0.04,,,0.04,VWS V13.01,2013-01-16 07:05:00,
2013-01-16 02:10:00,34.3,21.1,29.29,NNW,333,2.7,5.4,58,0.04,,,0.04,VWS V13.01,2013-01-16 07:10:00,
2013-01-16 02:15:00,34.3,21.1,29.29,NW,321,6.3,6.3,58,0.04,,,0.04,VWS V13.01,2013-01-16 07:15:00,
2013-01-16 02:20:00,34.3,21.9,29.29,NW,308,5.8,7.6,60,0.04,,,0.04,VWS V13.01,2013-01-16 07:20:00,
2013-01-16 02:25:00,34.3,21.9,29.29,NW,317,6.3,6.7,60,0.00,,,0.04,VWS V13.01,2013-01-16 07:25:00,
2013-01-16 02:30:00,34.2,22.1,29.29,North,0,0.0,6.3,61,0.00,,,0.04,VWS V13.01,2013-01-16 07:30:00,
2013-01-16 02:35:00,34.2,22.1,29.29,North,0,0.0,3.1,61,0.04,,,0.08,VWS V13.01,2013-01-16 07:35:00,
2013-01-16 02:40:00,34.2,22.1,29.29,North,357,0.0,3.1,61,0.04,,,0.08,VWS V13.01,2013-01-16 07:40:00,
2013-01-16 02:45:00,34.2,22.1,29.29,North,357,0.0,0.0,61,0.04,,,0.08,VWS V13.01,2013-01-16 07:45:00,
2013-01-16 02:50:00,34.3,22.3,29.26,North,357,0.0,0.0,61,0.04,,,0.08,VWS V13.01,2013-01-16 07:50:00,
2013-01-16 02:55:00,34.3,22.3,29.26,North,357,0.0,0.0,61,0.04,,,0.08,VWS V13.01,2013-01-16 07:55:00,
2013-01-16 03:00:00,34.3,22.3,29.26,SW,231,2.2,3.6,61,0.04,,,0.31,VWS V13.01,2013-01-16 08:00:00,
2013-01-16 03:05:00,34.3,22.3,29.26,SW,231,0.0,0.0,61,0.04,,,0.08,VWS V13.01,2013-01-16 08:05:00,
2013-01-16 03:10:00,34.3,21.9,29.26,NW,313,2.7,2.7,60,0.12,,,0.16,VWS V13.01,2013-01-16 08:10:00,
2013-01-16 03:15:00,34.3,21.9,29.26,NW,313,0.0,2.7,60,0.12,,,0.16,VWS V13.01,2013-01-16 08:15:00,
2013-01-16 03:20:00,34.3,21.9,29.26,NW,313,0.0,0.0,60,0.12,,,0.16,VWS V13.01,2013-01-16 08:20:00,
2013-01-16 03:25:00,34.3,21.9,29.26,NW,313,0.0,0.0,60,0.12,,,0.16,VWS V13.01,2013-01-16 08:25:00,
2013-01-16 03:30:00,34.3,21.9,29.26,NW,313,0.0,0.0,60,0.12,,,0.16,VWS V13.01,2013-01-16 08:30:00,
2013-01-16 03:35:00,34.3,21.9,29.26,NW,313,0.0,0.0,60,0.16,,,0.20,VWS V13.01,2013-01-16 08:35:00,
2013-01-16 03:40:00,34.3,21.9,29.26,NW,313,0.0,2.2,60,0.12,,,0.20,VWS V13.01,2013-01-16 08:40:00,
2013-01-16 03:45:00,34.3,21.9,29.26,SW,222,3.1,3.1,60,0.12,,,0.20,VWS V13.01,2013-01-16 08:45:00,
2013-01-16 03:50:00,34.5,22.5,29.26,SW,222,2.7,4.0,61,0.12,,,0.20,VWS V13.01,2013-01-16 08:50:00,
2013-01-16 03:55:00,34.5,22.5,29.26,SW,222,3.1,3.1,61,0.12,,,0.20,VWS V13.01,2013-01-16 08:55:00,
2013-01-16 04:00:00,34.3,22.3,29.26,SW,220,3.1,3.6,61,0.12,,,0.31,VWS V13.01,2013-01-16 09:00:00,
2013-01-16 04:05:00,34.3,22.3,29.23,SW,220,0.0,3.1,61,0.16,,,0.24,VWS V13.01,2013-01-16 09:05:00,
2013-01-16 04:10:00,34.3,22.3,29.23,SW,220,0.0,2.2,61,0.16,,,0.24,VWS V13.01,2013-01-16 09:10:00,
2013-01-16 04:15:00,34.3,22.3,29.23,SW,221,4.9,4.9,61,0.08,,,0.24,VWS V13.01,2013-01-16 09:15:00,
2013-01-16 04:20:00,34.3,22.3,29.26,WSW,242,0.0,4.9,61,0.12,,,0.28,VWS V13.01,2013-01-16 09:20:00,
2013-01-16 04:25:00,34.3,22.3,29.26,WSW,242,0.0,2.7,61,0.12,,,0.28,VWS V13.01,2013-01-16 09:25:00,
2013-01-16 04:30:00,34.3,22.7,29.26,WSW,242,0.0,0.0,62,0.12,,,0.28,VWS V13.01,2013-01-16 09:30:00,
2013-01-16 04:35:00,34.3,22.7,29.23,SE,129,2.7,4.0,62,0.12,,,0.28,VWS V13.01,2013-01-16 09:35:00,
2013-01-16 04:40:00,34.3,22.7,29.23,SE,143,0.0,3.1,62,0.08,,,0.28,VWS V13.01,2013-01-16 09:40:00,
2013-01-16 04:45:00,34.3,22.7,29.23,SE,143,0.0,2.2,62,0.08,,,0.28,VWS V13.01,2013-01-16 09:45:00,
2013-01-16 04:50:00,34.3,22.7,29.26,WNW,299,2.7,3.1,62,0.12,,,0.31,VWS V13.01,2013-01-16 09:50:00,
2013-01-16 04:55:00,34.3,22.7,29.26,WNW,299,0.0,2.7,62,0.12,,,0.31,VWS V13.01,2013-01-16 09:55:00,
2013-01-16 05:00:00,34.3,22.7,29.26,WNW,299,0.0,0.0,62,0.12,,,0.31,VWS V13.01,2013-01-16 10:00:00,
2013-01-16 05:05:00,34.3,22.7,29.23,WNW,299,3.6,3.6,62,0.16,,,0.35,VWS V13.01,2013-01-16 10:05:00,
2013-01-16 05:10:00,34.3,22.7,29.23,SSE,156,2.7,5.4,62,0.12,,,0.35,VWS V13.01,2013-01-16 10:10:00,
2013-01-16 05:15:00,34.5,23.2,29.23,ESE,115,5.8,7.6,63,0.12,,,0.35,VWS V13.01,2013-01-16 10:15:00,
2013-01-16 05:20:00,34.5,24.0,29.21,South,180,5.8,9.2,65,0.12,,,0.35,VWS V13.01,2013-01-16 10:20:00,
2013-01-16 05:25:00,34.5,24.0,29.21,WNW,294,6.3,8.3,65,0.08,,,0.35,VWS V13.01,2013-01-16 10:25:00,
2013-01-16 05:30:00,34.7,24.1,29.21,SW,231,0.0,5.8,65,0.08,,,0.35,VWS V13.01,2013-01-16 10:30:00,
2013-01-16 05:35:00,34.7,24.1,29.23,NW,322,2.7,4.0,65,0.08,,,0.35,VWS V13.01,2013-01-16 10:35:00,
2013-01-16 05:40:00,34.7,24.5,29.23,NW,319,5.8,5.8,66,0.08,,,0.35,VWS V13.01,2013-01-16 10:40:00,
2013-01-16 05:45:00,34.7,24.5,29.23,North,350,4.9,8.7,66,0.12,,,0.39,VWS V13.01,2013-01-16 10:45:00,
2013-01-16 05:50:00,34.5,24.4,29.23,North,353,3.1,8.7,66,0.12,,,0.39,VWS V13.01,2013-01-16 10:50:00,
2013-01-16 05:55:00,34.5,24.4,29.23,East,91,3.1,6.3,66,0.08,,,0.39,VWS V13.01,2013-01-16 10:55:00,
2013-01-16 06:00:00,34.5,24.4,29.23,ESE,104,5.8,6.3,66,0.08,,,0.39,VWS V13.01,2013-01-16 11:00:00,
2013-01-16 06:05:00,34.3,24.5,29.21,West,281,2.2,8.1,67,0.08,,,0.39,VWS V13.01,2013-01-16 11:05:00,
2013-01-16 06:10:00,34.5,24.7,29.21,SE,141,4.9,4.9,67,0.04,,,0.39,VWS V13.01,2013-01-16 11:10:00,
2013-01-16 06:15:00,34.5,24.7,29.21,WNW,292,8.3,8.3,67,0.04,,,0.39,VWS V13.01,2013-01-16 11:15:00,
2013-01-16 06:20:00,34.9,25.0,29.29,WNW,297,11.0,12.8,67,0.04,,,0.39,VWS V13.01,2013-01-16 11:20:00,
2013-01-16 06:25:00,34.7,24.9,29.29,North,8,0.0,11.0,67,0.04,,,0.39,VWS V13.01,2013-01-16 11:25:00,
2013-01-16 06:30:00,34.5,24.7,29.29,North,0,0.0,8.3,67,0.04,,,0.39,VWS V13.01,2013-01-16 11:30:00,
2013-01-16 06:35:00,34.3,24.5,29.23,WNW,295,4.9,5.8,67,0.08,,,0.43,VWS V13.01,2013-01-16 11:35:00,
2013-01-16 06:40:00,34.5,24.7,29.23,NW,317,4.0,8.1,67,0.08,,,0.43,VWS V13.01,2013-01-16 11:40:00,
2013-01-16 06:45:00,34.5,24.7,29.23,NW,311,4.9,5.8,67,0.08,,,0.43,VWS V13.01,2013-01-16 11:45:00,
2013-01-16 06:50:00,34.3,24.5,29.26,NNW,339,2.7,4.9,67,0.04,,,0.43,VWS V13.01,2013-01-16 11:50:00,
2013-01-16 06:55:00,34.3,24.5,29.26,WNW,302,7.6,8.1,67,0.04,,,0.43,VWS V13.01,2013-01-16 11:55:00,
2013-01-16 07:00:00,34.3,24.5,29.26,NNE,29,0.0,7.6,67,0.04,,,0.43,VWS V13.01,2013-01-16 12:00:00,
2013-01-16 07:05:00,34.3,24.5,29.29,WNW,295,0.0,6.7,67,0.04,,,0.43,VWS V13.01,2013-01-16 12:05:00,
2013-01-16 07:10:00,34.3,24.5,29.29,WSW,256,0.0,0.0,67,0.04,,,0.43,VWS V13.01,2013-01-16 12:10:00,
2013-01-16 07:15:00,34.5,24.7,29.29,SE,128,4.0,4.0,67,0.04,,,0.43,VWS V13.01,2013-01-16 12:15:00,
2013-01-16 07:20:00,34.3,24.5,29.26,SE,128,2.2,4.0,67,0.04,,,0.43,VWS V13.01,2013-01-16 12:20:00,
2013-01-16 07:25:00,34.3,24.5,29.26,NNW,341,2.7,3.6,67,0.04,,,0.43,VWS V13.01,2013-01-16 12:25:00,
2013-01-16 07:30:00,34.3,24.5,29.26,NNW,341,0.0,3.1,67,0.04,,,0.43,VWS V13.01,2013-01-16 12:30:00,
2013-01-16 07:35:00,34.3,24.5,29.26,NNW,341,0.0,0.0,67,0.04,,,0.43,VWS V13.01,2013-01-16 12:35:00,
2013-01-16 07:40:00,34.3,24.9,29.26,SE,128,7.6,10.1,68,0.00,,,0.43,VWS V13.01,2013-01-16 12:40:00,
2013-01-16 07:45:00,34.3,24.9,29.26,WNW,295,6.3,10.5,68,0.00,,,0.43,VWS V13.01,2013-01-16 12:45:00,
2013-01-16 07:50:00,34.5,25.1,29.29,WSW,255,4.0,6.3,68,0.00,,,0.43,VWS V13.01,2013-01-16 12:50:00,
2013-01-16 07:55:00,34.5,25.1,29.29,NNW,346,2.7,5.8,68,0.00,,,0.43,VWS V13.01,2013-01-16 12:55:00,
2013-01-16 08:00:00,34.5,25.1,29.29,East,96,4.9,5.4,68,0.00,,,0.43,VWS V13.01,2013-01-16 13:00:00,
2013-01-16 08:05:00,34.5,25.1,29.23,West,259,3.6,4.0,68,0.00,,,0.43,VWS V13.01,2013-01-16 13:05:00,
2013-01-16 08:10:00,34.5,25.1,29.23,WSW,254,3.1,4.0,68,0.00,,,0.43,VWS V13.01,2013-01-16 13:10:00,
2013-01-16 08:15:00,34.5,25.1,29.23,SE,137,6.3,6.3,68,0.00,,,0.43,VWS V13.01,2013-01-16 13:15:00,
2013-01-16 08:20:00,34.5,25.1,29.23,WNW,302,6.3,6.3,68,0.00,,,0.43,VWS V13.01,2013-01-16 13:20:00,
2013-01-16 08:25:00,34.5,25.1,29.23,WNW,293,6.3,6.3,68,0.00,,,0.43,VWS V13.01,2013-01-16 13:25:00,
2013-01-16 08:30:00,34.7,25.2,29.23,SE,135,0.0,6.3,68,0.00,,,0.43,VWS V13.01,2013-01-16 13:30:00,
2013-01-16 08:35:00,34.7,25.2,29.26,NNW,334,0.0,4.0,68,0.00,,,0.43,VWS V13.01,2013-01-16 13:35:00,
2013-01-16 08:40:00,34.7,25.2,29.26,WNW,297,5.4,5.4,68,0.00,,,0.43,VWS V13.01,2013-01-16 13:40:00,
2013-01-16 08:45:00,34.7,25.2,29.26,WNW,301,4.0,4.9,68,0.00,,,0.43,VWS V13.01,2013-01-16 13:45:00,
2013-01-16 08:50:00,34.7,25.2,29.26,WNW,283,4.5,5.4,68,0.00,,,0.43,VWS V13.01,2013-01-16 13:50:00,
2013-01-16 08:55:00,34.7,25.2,29.26,NW,308,4.0,6.3,68,0.00,,,0.43,VWS V13.01,2013-01-16 13:55:00,
2013-01-16 09:00:00,34.7,25.2,29.26,WNW,287,5.4,5.4,68,0.00,,,0.43,VWS V13.01,2013-01-16 14:00:00,
2013-01-16 09:05:00,34.7,25.2,29.29,NNW,331,3.1,5.4,68,0.00,,,0.43,VWS V13.01,2013-01-16 14:05:00,
2013-01-16 09:10:00,34.7,25.2,29.29,WNW,293,4.0,5.4,68,0.00,,,0.43,VWS V13.01,2013-01-16 14:10:00,
2013-01-16 09:15:00,34.7,25.2,29.29,WNW,295,4.9,4.9,68,0.00,,,0.43,VWS V13.01,2013-01-16 14:15:00,
2013-01-16 09:20:00,34.7,25.2,29.29,WNW,303,5.4,7.2,68,0.00,,,0.43,VWS V13.01,2013-01-16 14:20:00,
2013-01-16 09:25:00,34.7,25.2,29.29,NNW,328,2.2,6.3,68,0.00,,,0.43,VWS V13.01,2013-01-16 14:25:00,
2013-01-16 09:30:00,34.7,25.2,29.29,NW,310,5.8,6.7,68,0.00,,,0.43,VWS V13.01,2013-01-16 14:30:00,
2013-01-16 09:35:00,34.7,25.2,29.29,West,280,5.8,6.3,68,0.00,,,0.43,VWS V13.01,2013-01-16 14:35:00,
2013-01-16 09:40:00,34.7,25.2,29.29,West,281,4.0,7.6,68,0.00,,,0.43,VWS V13.01,2013-01-16 14:40:00,
2013-01-16 09:45:00,34.9,25.4,29.29,WNW,284,3.6,5.4,68,0.00,,,0.43,VWS V13.01,2013-01-16 14:45:00,
2013-01-16 09:50:00,34.9,25.4,29.32,NNW,330,5.4,5.4,68,0.00,,,0.43,VWS V13.01,2013-01-16 14:50:00,
2013-01-16 09:55:00,34.9,25.4,29.32,WNW,297,4.9,7.6,68,0.00,,,0.43,VWS V13.01,2013-01-16 14:55:00,
2013-01-16 10:00:00,34.9,25.4,29.32,NW,305,3.1,6.3,68,0.00,,,0.43,VWS V13.01,2013-01-16 15:00:00,
2013-01-16 10:05:00,34.9,25.4,29.32,NW,323,3.1,4.5,68,0.00,,,0.43,VWS V13.01,2013-01-16 15:05:00,
2013-01-16 10:10:00,34.9,25.4,29.32,NW,318,4.9,6.3,68,0.00,,,0.43,VWS V13.01,2013-01-16 15:10:00,
2013-01-16 10:15:00,34.9,25.4,29.32,WNW,294,5.4,8.1,68,0.00,,,0.43,VWS V13.01,2013-01-16 15:15:00,
2013-01-16 10:20:00,34.9,25.0,29.32,NW,318,4.0,7.6,67,0.00,,,0.43,VWS V13.01,2013-01-16 15:20:00,
2013-01-16 10:25:00,34.9,25.0,29.32,NNW,328,3.6,6.3,67,0.00,,,0.43,VWS V13.01,2013-01-16 15:25:00,
2013-01-16 10:30:00,34.9,25.0,29.32,NW,321,2.2,4.9,67,0.00,,,0.43,VWS V13.01,2013-01-16 15:30:00,
2013-01-16 10:35:00,34.9,25.0,29.29,NW,305,6.7,6.7,67,0.00,,,0.43,VWS V13.01,2013-01-16 15:35:00,
2013-01-16 10:40:00,34.9,25.0,29.29,NW,320,4.0,5.8,67,0.00,,,0.43,VWS V13.01,2013-01-16 15:40:00,
2013-01-16 10:45:00,34.9,25.0,29.29,WNW,296,4.0,8.1,67,0.00,,,0.43,VWS V13.01,2013-01-16 15:45:00,
2013-01-16 10:50:00,34.9,25.0,29.32,NW,313,4.0,6.3,67,0.00,,,0.43,VWS V13.01,2013-01-16 15:50:00,
2013-01-16 10:55:00,34.9,25.0,29.32,WNW,299,3.1,4.9,67,0.00,,,0.43,VWS V13.01,2013-01-16 15:55:00,
2013-01-16 11:00:00,35.1,25.2,29.32,West,266,2.7,4.0,67,0.00,,,0.43,VWS V13.01,2013-01-16 16:00:00,
2013-01-16 11:05:00,35.1,25.2,29.32,WNW,284,4.9,5.8,67,0.00,,,0.43,VWS V13.01,2013-01-16 16:05:00,
2013-01-16 11:10:00,34.9,25.0,29.32,WNW,303,5.8,5.8,67,0.00,,,0.43,VWS V13.01,2013-01-16 16:10:00,
2013-01-16 11:15:00,35.1,25.2,29.32,NW,324,4.0,5.4,67,0.00,,,0.43,VWS V13.01,2013-01-16 16:15:00,
2013-01-16 11:20:00,35.1,25.2,29.29,WNW,293,4.0,5.8,67,0.00,,,0.43,VWS V13.01,2013-01-16 16:20:00,
2013-01-16 11:25:00,35.1,25.2,29.29,WNW,290,5.8,8.7,67,0.00,,,0.43,VWS V13.01,2013-01-16 16:25:00,
2013-01-16 11:30:00,35.1,25.2,29.29,WNW,292,3.1,6.7,67,0.00,,,0.43,VWS V13.01,2013-01-16 16:30:00,
2013-01-16 11:35:00,35.1,25.2,29.32,NW,306,4.0,4.0,67,0.00,,,0.43,VWS V13.01,2013-01-16 16:35:00,
2013-01-16 11:40:00,35.1,25.2,29.32,WSW,244,3.6,5.8,67,0.00,,,0.43,VWS V13.01,2013-01-16 16:40:00,
2013-01-16 11:45:00,35.1,25.2,29.32,WNW,303,0.0,5.8,67,0.00,,,0.43,VWS V13.01,2013-01-16 16:45:00,
2013-01-16 11:50:00,35.1,25.2,29.32,NW,310,3.1,4.0,67,0.00,,,0.43,VWS V13.01,2013-01-16 16:50:00,
2013-01-16 11:55:00,35.1,25.2,29.32,WNW,294,4.9,6.3,67,0.00,,,0.43,VWS V13.01,2013-01-16 16:55:00,
2013-01-16 12:00:00,35.1,25.2,29.32,NW,310,3.1,5.8,67,0.00,,,0.43,VWS V13.01,2013-01-16 17:00:00,
2013-01-16 12:05:00,35.1,25.2,29.32,North,357,0.0,5.4,67,0.00,,,0.43,VWS V13.01,2013-01-16 17:05:00,
2013-01-16 12:10:00,35.1,25.2,29.32,WNW,293,0.0,4.9,67,0.00,,,0.43,VWS V13.01,2013-01-16 17:10:00,
2013-01-16 12:15:00,35.1,25.2,29.32,WNW,294,3.1,5.4,67,0.00,,,0.43,VWS V13.01,2013-01-16 17:15:00,
2013-01-16 12:20:00,35.1,25.6,29.29,WNW,293,3.1,4.0,68,0.00,,,0.43,VWS V13.01,2013-01-16 17:20:00,
2013-01-16 12:25:00,35.1,25.6,29.29,WNW,303,4.0,4.0,68,0.00,,,0.43,VWS V13.01,2013-01-16 17:25:00,
2013-01-16 12:30:00,34.9,25.0,29.29,WNW,303,0.0,2.2,67,0.00,,,0.43,VWS V13.01,2013-01-16 17:30:00,
2013-01-16 12:35:00,35.1,25.6,29.29,West,277,2.2,4.0,68,0.00,,,0.43,VWS V13.01,2013-01-16 17:35:00,
2013-01-16 12:40:00,35.1,25.6,29.29,WNW,297,4.0,4.0,68,0.00,,,0.43,VWS V13.01,2013-01-16 17:40:00,
2013-01-16 12:45:00,35.1,25.6,29.29,NNW,334,2.2,5.4,68,0.00,,,0.43,VWS V13.01,2013-01-16 17:45:00,
2013-01-16 12:50:00,35.2,25.8,29.29,NW,307,2.2,3.6,68,0.00,,,0.43,VWS V13.01,2013-01-16 17:50:00,
2013-01-16 12:55:00,35.1,25.6,29.29,WNW,290,5.4,5.4,68,0.00,,,0.43,VWS V13.01,2013-01-16 17:55:00,
2013-01-16 13:00:00,35.2,25.8,29.29,WSW,256,5.4,6.3,68,0.00,,,0.43,VWS V13.01,2013-01-16 18:00:00,
2013-01-16 13:05:00,35.1,25.6,29.32,WSW,254,3.6,4.0,68,0.00,,,0.43,VWS V13.01,2013-01-16 18:05:00,
2013-01-16 13:10:00,35.2,25.8,29.32,WNW,290,3.6,4.0,68,0.00,,,0.43,VWS V13.01,2013-01-16 18:10:00,
2013-01-16 13:15:00,35.2,25.8,29.32,NW,305,3.6,4.0,68,0.00,,,0.43,VWS V13.01,2013-01-16 18:15:00,
2013-01-16 13:20:00,35.2,25.8,29.32,West,268,3.6,4.0,68,0.00,,,0.43,VWS V13.01,2013-01-16 18:20:00,
2013-01-16 13:25:00,35.2,25.8,29.32,West,280,0.0,6.3,68,0.00,,,0.43,VWS V13.01,2013-01-16 18:25:00,
2013-01-16 13:30:00,35.2,25.8,29.32,WNW,284,0.0,2.7,68,0.00,,,0.43,VWS V13.01,2013-01-16 18:30:00,
2013-01-16 13:35:00,35.4,25.9,29.29,SW,235,0.0,5.4,68,0.00,,,0.43,VWS V13.01,2013-01-16 18:35:00,
2013-01-16 13:40:00,35.4,25.9,29.29,SW,235,2.2,3.6,68,0.00,,,0.43,VWS V13.01,2013-01-16 18:40:00,
2013-01-16 13:45:00,35.4,25.9,29.29,SW,233,0.0,3.6,68,0.00,,,0.43,VWS V13.01,2013-01-16 18:45:00,
2013-01-16 13:50:00,35.4,25.9,29.29,WSW,256,4.0,4.0,68,0.00,,,0.43,VWS V13.01,2013-01-16 18:50:00,
2013-01-16 13:55:00,35.4,25.9,29.29,WSW,240,2.7,3.6,68,0.00,,,0.43,VWS V13.01,2013-01-16 18:55:00,
2013-01-16 14:00:00,35.4,25.9,29.29,West,266,0.0,2.7,68,0.00,,,0.43,VWS V13.01,2013-01-16 19:00:00,
2013-01-16 14:05:00,35.4,25.9,29.29,SW,223,0.0,3.6,68,0.00,,,0.43,VWS V13.01,2013-01-16 19:05:00,
2013-01-16 14:10:00,35.6,26.1,29.29,SW,223,2.7,3.1,68,0.00,,,0.43,VWS V13.01,2013-01-16 19:10:00,
2013-01-16 14:15:00,35.6,26.1,29.29,WNW,297,2.7,4.0,68,0.00,,,0.43,VWS V13.01,2013-01-16 19:15:00,
2013-01-16 14:20:00,35.6,26.1,29.29,WNW,297,2.7,3.1,68,0.00,,,0.43,VWS V13.01,2013-01-16 19:20:00,
2013-01-16 14:25:00,35.6,26.1,29.29,WNW,298,0.0,3.6,68,0.00,,,0.43,VWS V13.01,2013-01-16 19:25:00,
2013-01-16 14:30:00,35.8,26.3,29.29,WNW,298,0.0,2.2,68,0.00,,,0.43,VWS V13.01,2013-01-16 19:30:00,
2013-01-16 14:35:00,35.8,26.3,29.29,WNW,298,0.0,2.7,68,0.00,,,0.43,VWS V13.01,2013-01-16 19:35:00,
2013-01-16 14:40:00,35.8,26.3,29.29,WNW,298,0.0,3.1,68,0.00,,,0.43,VWS V13.01,2013-01-16 19:40:00,
2013-01-16 14:45:00,36.0,26.4,29.29,WNW,297,0.0,2.2,68,0.00,,,0.43,VWS V13.01,2013-01-16 19:45:00,
2013-01-16 14:50:00,36.0,26.4,29.29,WSW,243,0.0,3.1,68,0.00,,,0.43,VWS V13.01,2013-01-16 19:50:00,
2013-01-16 14:55:00,36.1,26.6,29.29,WSW,243,0.0,0.0,68,0.00,,,0.43,VWS V13.01,2013-01-16 19:55:00,
2013-01-16 15:00:00,36.0,26.4,29.29,West,265,0.0,2.2,68,0.00,,,0.43,VWS V13.01,2013-01-16 20:00:00,
2013-01-16 15:05:00,36.0,26.1,29.29,West,280,2.2,3.6,67,0.00,,,0.43,VWS V13.01,2013-01-16 20:05:00,
2013-01-16 15:10:00,36.0,26.1,29.29,WSW,253,0.0,3.6,67,0.00,,,0.43,VWS V13.01,2013-01-16 20:10:00,
2013-01-16 15:15:00,36.0,26.4,29.29,WSW,247,2.2,3.6,68,0.00,,,0.43,VWS V13.01,2013-01-16 20:15:00,
2013-01-16 15:20:00,36.1,26.3,29.29,West,281,2.7,3.1,67,0.00,,,0.43,VWS V13.01,2013-01-16 20:20:00,
2013-01-16 15:25:00,36.1,26.3,29.29,WSW,256,2.7,4.0,67,0.00,,,0.43,VWS V13.01,2013-01-16 20:25:00,
2013-01-16 15:30:00,36.1,26.3,29.29,WSW,257,0.0,4.0,67,0.00,,,0.43,VWS V13.01,2013-01-16 20:30:00,
2013-01-16 15:35:00,36.1,26.3,29.32,WNW,283,2.2,4.0,67,0.00,,,0.43,VWS V13.01,2013-01-16 20:35:00,
2013-01-16 15:40:00,36.1,26.3,29.32,SW,220,4.0,4.9,67,0.00,,,0.43,VWS V13.01,2013-01-16 20:40:00,
2013-01-16 15:45:00,36.3,26.4,29.32,WNW,289,3.6,3.6,67,0.00,,,0.43,VWS V13.01,2013-01-16 20:45:00,
2013-01-16 15:50:00,36.3,26.1,29.32,WNW,283,0.0,3.6,66,0.00,,,0.43,VWS V13.01,2013-01-16 20:50:00,
2013-01-16 15:55:00,36.3,26.1,29.32,NW,304,0.0,4.0,66,0.00,,,0.43,VWS V13.01,2013-01-16 20:55:00,
2013-01-16 16:00:00,36.3,26.1,29.32,SW,224,2.7,4.9,66,0.00,,,0.43,VWS V13.01,2013-01-16 21:00:00,
2013-01-16 16:05:00,36.3,25.7,29.32,WNW,293,0.0,4.0,65,0.00,,,0.43,VWS V13.01,2013-01-16 21:05:00,
2013-01-16 16:10:00,36.3,25.7,29.32,West,260,0.0,3.1,65,0.00,,,0.43,VWS V13.01,2013-01-16 21:10:00,
2013-01-16 16:15:00,36.3,25.3,29.32,WNW,286,0.0,3.1,64,0.00,,,0.43,VWS V13.01,2013-01-16 21:15:00,
2013-01-16 16:20:00,36.5,25.5,29.32,SW,227,0.0,2.2,64,0.00,,,0.43,VWS V13.01,2013-01-16 21:20:00,
2013-01-16 16:25:00,36.5,25.1,29.32,SW,227,0.0,0.0,63,0.00,,,0.43,VWS V13.01,2013-01-16 21:25:00,
2013-01-16 16:30:00,36.5,25.1,29.32,SW,227,0.0,0.0,63,0.00,,,0.43,VWS V13.01,2013-01-16 21:30:00,
2013-01-16 16:35:00,36.7,25.3,29.32,SW,227,0.0,0.0,63,0.00,,,0.43,VWS V13.01,2013-01-16 21:35:00,
2013-01-16 16:40:00,36.7,25.3,29.32,SW,227,0.0,0.0,63,0.00,,,0.43,VWS V13.01,2013-01-16 21:40:00,
2013-01-16 16:45:00,36.7,25.3,29.32,SE,144,0.0,0.0,63,0.00,,,0.43,VWS V13.01,2013-01-16 21:45:00,
2013-01-16 16:50:00,36.7,24.9,29.32,SSE,148,0.0,3.1,62,0.00,,,0.43,VWS V13.01,2013-01-16 21:50:00,
2013-01-16 16:55:00,36.7,24.9,29.32,SE,135,4.9,4.9,62,0.00,,,0.43,VWS V13.01,2013-01-16 21:55:00,
2013-01-16 17:00:00,36.7,24.9,29.32,SE,133,0.0,0.0,62,0.00,,,0.43,VWS V13.01,2013-01-16 22:00:00,
2013-01-16 17:05:00,36.7,24.9,29.32,SE,133,0.0,0.0,62,0.00,,,0.43,VWS V13.01,2013-01-16 22:05:00,
2013-01-16 17:10:00,36.7,24.5,29.32,SE,138,3.6,3.6,61,0.00,,,0.43,VWS V13.01,2013-01-16 22:10:00,
2013-01-16 17:15:00,36.7,24.5,29.32,SE,135,0.0,0.0,61,0.00,,,0.43,VWS V13.01,2013-01-16 22:15:00,
2013-01-16 17:20:00,36.7,24.5,29.35,SE,129,4.0,5.8,61,0.00,,,0.43,VWS V13.01,2013-01-16 22:20:00,
2013-01-16 17:26:00,36.7,23.7,29.35,ESE,121,0.0,0.0,59,0.00,,,0.43,VWS V13.01,2013-01-16 22:26:00,
2013-01-16 17:30:00,36.7,23.7,29.35,ESE,121,0.0,0.0,59,0.00,,,0.43,VWS V13.01,2013-01-16 22:30:00,
2013-01-16 17:35:00,36.9,23.5,29.35,ESE,121,0.0,0.0,58,0.00,,,0.43,VWS V13.01,2013-01-16 22:35:00,
2013-01-16 17:40:00,36.9,23.5,29.35,ESE,121,0.0,0.0,58,0.00,,,0.43,VWS V13.01,2013-01-16 22:40:00,
2013-01-16 17:46:00,36.9,23.5,29.35,ESE,121,0.0,0.0,58,0.00,,,0.43,VWS V13.01,2013-01-16 22:46:00,
2013-01-16 17:51:00,36.7,23.3,29.32,ESE,121,3.1,3.1,58,0.00,,,0.43,VWS V13.01,2013-01-16 22:51:00,
2013-01-16 17:56:00,36.7,22.9,29.32,East,100,4.0,4.0,57,0.00,,,0.43,VWS V13.01,2013-01-16 22:56:00,
2013-01-16 18:01:00,36.7,22.9,29.32,ESE,115,0.0,0.0,57,0.00,,,0.43,VWS V13.01,2013-01-16 23:01:00,
2013-01-16 18:06:00,36.7,22.9,29.32,ESE,123,2.7,3.6,57,0.00,,,0.43,VWS V13.01,2013-01-16 23:06:00,
2013-01-16 18:11:00,36.7,22.9,29.32,ESE,119,0.0,2.7,57,0.00,,,0.43,VWS V13.01,2013-01-16 23:11:00,
2013-01-16 18:16:00,36.7,22.5,29.32,ESE,114,2.7,2.7,56,0.00,,,0.43,VWS V13.01,2013-01-16 23:16:00,
2013-01-16 18:21:00,36.7,22.5,29.32,East,97,2.7,2.7,56,0.00,,,0.43,VWS V13.01,2013-01-16 23:21:00,
2013-01-16 18:26:00,36.7,22.5,29.32,East,97,0.0,2.2,56,0.00,,,0.43,VWS V13.01,2013-01-16 23:26:00,
2013-01-16 18:31:00,36.7,22.5,29.32,East,97,3.6,3.6,56,0.00,,,0.43,VWS V13.01,2013-01-16 23:31:00,
2013-01-16 18:36:00,36.7,22.5,29.32,East,97,3.1,3.1,56,0.00,,,0.43,VWS V13.01,2013-01-16 23:36:00,
2013-01-16 18:41:00,36.7,22.5,29.32,ESE,116,0.0,2.2,56,0.00,,,0.43,VWS V13.01,2013-01-16 23:41:00,
2013-01-16 18:46:00,36.7,22.5,29.32,ESE,116,2.2,2.2,56,0.00,,,0.43,VWS V13.01,2013-01-16 23:46:00,
2013-01-16 18:51:00,36.9,22.6,29.35,ESE,116,0.0,0.0,56,0.00,,,0.43,VWS V13.01,2013-01-16 23:51:00,
2013-01-16 18:56:00,36.9,22.6,29.35,ESE,116,0.0,0.0,56,0.00,,,0.43,VWS V13.01,2013-01-16 23:56:00,
2013-01-16 19:01:00,36.9,22.6,29.35,ESE,116,0.0,2.7,56,0.00,,,0.43,VWS V13.01,2013-01-17 00:01:00,
2013-01-16 19:06:00,37.0,22.8,29.35,ESE,116,0.0,0.0,56,0.00,,,0.43,VWS V13.01,2013-01-17 00:06:00,
2013-01-16 19:11:00,37.0,22.8,29.35,ESE,116,0.0,3.6,56,0.00,,,0.43,VWS V13.01,2013-01-17 00:11:00,
2013-01-16 19:16:00,37.0,22.8,29.35,ESE,116,2.7,4.0,56,0.00,,,0.43,VWS V13.01,2013-01-17 00:16:00,
2013-01-16 19:21:00,37.0,22.8,29.35,North,349,0.0,0.0,56,0.00,,,0.43,VWS V13.01,2013-01-17 00:21:00,
2013-01-16 19:26:00,37.0,22.8,29.35,North,349,0.0,0.0,56,0.00,,,0.43,VWS V13.01,2013-01-17 00:26:00,
2013-01-16 19:31:00,36.9,22.6,29.35,North,349,0.0,0.0,56,0.00,,,0.43,VWS V13.01,2013-01-17 00:31:00,
2013-01-16 19:36:00,36.9,22.6,29.35,North,349,0.0,0.0,56,0.00,,,0.43,VWS V13.01,2013-01-17 00:36:00,
2013-01-16 19:41:00,37.0,22.8,29.35,North,349,0.0,2.7,56,0.00,,,0.43,VWS V13.01,2013-01-17 00:41:00,
2013-01-16 19:46:00,37.0,22.8,29.35,North,349,0.0,2.2,56,0.00,,,0.43,VWS V13.01,2013-01-17 00:46:00,
2013-01-16 19:51:00,37.0,22.8,29.35,North,349,0.0,0.0,56,0.00,,,0.43,VWS V13.01,2013-01-17 00:51:00,
2013-01-16 19:56:00,36.9,22.6,29.35,North,349,0.0,2.7,56,0.00,,,0.43,VWS V13.01,2013-01-17 00:56:00,
2013-01-16 20:01:00,36.9,22.6,29.35,NW,304,4.0,4.0,56,0.00,,,0.43,VWS V13.01,2013-01-17 01:01:00,
2013-01-16 20:06:00,36.9,22.6,29.35,NW,309,2.2,3.6,56,0.00,,,0.43,VWS V13.01,2013-01-17 01:06:00,
2013-01-16 20:11:00,36.9,22.6,29.35,NW,308,3.1,4.0,56,0.00,,,0.43,VWS V13.01,2013-01-17 01:11:00,
2013-01-16 20:16:00,36.9,22.6,29.35,NW,308,0.0,0.0,56,0.00,,,0.43,VWS V13.01,2013-01-17 01:16:00,
2013-01-16 20:21:00,36.9,22.6,29.35,NW,312,2.7,3.6,56,0.00,,,0.43,VWS V13.01,2013-01-17 01:21:00,
2013-01-16 20:26:00,36.9,22.6,29.35,NW,313,6.3,6.3,56,0.00,,,0.43,VWS V13.01,2013-01-17 01:26:00,
2013-01-16 20:31:00,37.0,22.8,29.35,North,357,2.7,3.1,56,0.00,,,0.43,VWS V13.01,2013-01-17 01:31:00,
2013-01-16 20:36:00,36.9,22.6,29.35,NNW,330,3.6,4.0,56,0.00,,,0.43,VWS V13.01,2013-01-17 01:36:00,
2013-01-16 20:41:00,36.9,22.6,29.35,North,0,2.7,2.7,56,0.00,,,0.43,VWS V13.01,2013-01-17 01:41:00,
2013-01-16 20:46:00,36.9,22.6,29.35,NNW,343,2.2,3.1,56,0.00,,,0.43,VWS V13.01,2013-01-17 01:46:00,
2013-01-16 20:51:00,36.9,23.1,29.35,NW,325,3.6,3.6,57,0.00,,,0.43,VWS V13.01,2013-01-17 01:51:00,
2013-01-16 20:56:00,36.9,23.1,29.35,NNW,334,2.7,3.1,57,0.00,,,0.43,VWS V13.01,2013-01-17 01:56:00,
2013-01-16 21:01:00,36.9,23.1,29.35,WNW,297,4.9,5.8,57,0.00,,,0.43,VWS V13.01,2013-01-17 02:01:00,
2013-01-16 21:06:00,37.0,23.2,29.38,NNW,332,3.6,3.6,57,0.00,,,0.43,VWS V13.01,2013-01-17 02:06:00,
2013-01-16 21:11:00,36.9,23.1,29.38,NNW,337,2.7,3.1,57,0.00,,,0.43,VWS V13.01,2013-01-17 02:11:00,
2013-01-16 21:16:00,36.9,23.1,29.38,NNW,330,3.6,3.6,57,0.00,,,0.43,VWS V13.01,2013-01-17 02:16:00,
2013-01-16 21:21:00,36.9,23.1,29.35,NNW,333,3.1,3.1,57,0.00,,,0.43,VWS V13.01,2013-01-17 02:21:00,
2013-01-16 21:26:00,36.9,23.1,29.35,WNW,297,4.9,5.4,57,0.00,,,0.43,VWS V13.01,2013-01-17 02:26:00,
2013-01-16 21:31:00,37.0,23.2,29.35,NW,305,0.0,0.0,57,0.00,,,0.43,VWS V13.01,2013-01-17 02:31:00,
2013-01-16 21:36:00,37.0,23.2,29.35,NW,326,4.0,5.8,57,0.00,,,0.43,VWS V13.01,2013-01-17 02:36:00,
2013-01-16 21:41:00,37.0,23.2,29.35,NNW,333,3.1,3.1,57,0.00,,,0.43,VWS V13.01,2013-01-17 02:41:00,
2013-01-16 21:46:00,37.0,23.2,29.35,NNW,332,2.2,2.2,57,0.00,,,0.43,VWS V13.01,2013-01-17 02:46:00,
2013-01-16 21:51:00,37.0,23.2,29.35,NNW,332,0.0,0.0,57,0.00,,,0.43,VWS V13.01,2013-01-17 02:51:00,
2013-01-16 21:56:00,36.9,23.1,29.35,NNW,332,0.0,2.2,57,0.00,,,0.43,VWS V13.01,2013-01-17 02:56:00,
2013-01-16 22:01:00,36.9,23.1,29.35,NNW,332,2.7,4.0,57,0.00,,,0.43,VWS V13.01,2013-01-17 03:01:00,
2013-01-16 22:06:00,36.9,23.1,29.35,NW,307,3.6,4.0,57,0.00,,,0.43,VWS V13.01,2013-01-17 03:06:00,
2013-01-16 22:11:00,36.9,23.1,29.35,NNW,339,2.2,2.2,57,0.00,,,0.43,VWS V13.01,2013-01-17 03:11:00,
2013-01-16 22:16:00,36.9,23.1,29.35,NW,315,2.7,3.6,57,0.00,,,0.43,VWS V13.01,2013-01-17 03:16:00,
2013-01-16 22:21:00,36.9,23.1,29.35,NW,316,0.0,0.0,57,0.00,,,0.43,VWS V13.01,2013-01-17 03:21:00,
2013-01-16 22:26:00,36.9,23.1,29.35,NW,305,3.6,5.8,57,0.00,,,0.43,VWS V13.01,2013-01-17 03:26:00,
2013-01-16 22:31:00,36.9,23.1,29.35,NW,305,2.7,3.1,57,0.00,,,0.43,VWS V13.01,2013-01-17 03:31:00,
2013-01-16 22:36:00,36.9,23.1,29.35,WNW,302,3.1,3.6,57,0.00,,,0.43,VWS V13.01,2013-01-17 03:36:00,
2013-01-16 22:41:00,36.9,23.1,29.35,NNW,331,3.1,3.6,57,0.00,,,0.43,VWS V13.01,2013-01-17 03:41:00,
2013-01-16 22:46:00,36.9,23.1,29.35,NNW,327,0.0,4.0,57,0.00,,,0.43,VWS V13.01,2013-01-17 03:46:00,
2013-01-16 22:51:00,36.9,23.5,29.35,NW,312,3.6,5.4,58,0.00,,,0.43,VWS V13.01,2013-01-17 03:51:00,
2013-01-16 22:57:00,36.9,23.5,29.35,NW,316,3.6,4.9,58,0.00,,,0.43,VWS V13.01,2013-01-17 03:57:00,
2013-01-16 23:02:00,36.7,23.3,29.35,NNW,330,3.1,3.6,58,0.00,,,0.43,VWS V13.01,2013-01-17 04:02:00,
2013-01-16 23:07:00,36.7,23.3,29.35,NW,306,3.6,3.6,58,0.00,,,0.43,VWS V13.01,2013-01-17 04:07:00,
2013-01-16 23:12:00,36.7,23.3,29.35,NW,325,3.6,3.6,58,0.00,,,0.43,VWS V13.01,2013-01-17 04:12:00,
2013-01-16 23:17:00,36.7,22.9,29.35,WNW,296,3.6,5.4,57,0.00,,,0.43,VWS V13.01,2013-01-17 04:17:00,
2013-01-16 23:21:00,36.7,22.9,29.35,NW,317,2.2,2.7,57,0.00,,,0.43,VWS V13.01,2013-01-17 04:21:00,
2013-01-16 23:27:00,36.7,22.9,29.35,NW,317,0.0,0.0,57,0.00,,,0.43,VWS V13.01,2013-01-17 04:27:00,
2013-01-16 23:32:00,36.7,22.9,29.35,NW,317,2.7,2.7,57,0.00,,,0.43,VWS V13.01,2013-01-17 04:32:00,
2013-01-16 23:37:00,36.7,22.9,29.35,NW,317,3.1,4.0,57,0.00,,,0.43,VWS V13.01,2013-01-17 04:37:00,
2013-01-16 23:42:00,36.7,22.9,29.35,NW,317,3.1,3.1,57,0.00,,,0.43,VWS V13.01,2013-01-17 04:42:00,
2013-01-16 23:47:00,36.7,22.9,29.38,NW,317,3.1,4.0,57,0.00,,,0.43,VWS V13.01,2013-01-17 04:47:00,
2013-01-16 23:52:00,36.7,22.9,29.38,NNW,329,2.2,2.2,57,0.00,,,0.43,VWS V13.01,2013-01-17 04:52:00,
2013-01-16 23:57:00,36.7,22.9,29.38,NW,305,3.6,4.0,57,0.00,,,0.43,VWS V13.01,2013-01-17 04:57:00,